Home > Weather > Denver > Past weeks

Flag for USA Weather for the Past 2 Weeks in Denver, Colorado, USA

Now
28 °F

Sunny.


Feels Like: 21 °F
Forecast: 28 / 56 °F
Wind: 6 mph from Southwest

Location: Buckley Air Force Base

Current Time: May 2, 2016 at 7:13:59 AM

Latest Report: May 2, 2016 at 6:58 AM


Visibility: 10 mi

Pressure: 30.29 "Hg (24.77 "Hg at 1593m altitude)

Humidity: 90%

Dew Point: 25 °F

Location of DenverLocation

Historic Weather in Denver — Graph

°F

Denver Temperature Yesterday

Maximum temperature yesterday: 39 °F (at 6:58 PM)
Minimum temperature yesterday: 31 °F (at 11:58 PM)
Average temperature yesterday: 33 °F

High & Low Weather Summary for the Past Weeks

 TemperatureHumidityPressure
High76 °F (Apr 22, 3:58 PM)100% (Apr 19, 3:58 AM)30.37 "Hg (Apr 19, 3:58 AM)
Low27 °F (May 2, 5:58 AM)17% (Apr 22, 2:58 PM)29.40 "Hg (Apr 23, 4:58 PM)
Average43 °F71%29.91 "Hg
* Reported Apr 18 6:58 PM — May 2 5:58 AM, Denver, Weather by CustomWeather, © 2016

Note: Actual official high and low records may vary slightly from our data, if they occured in-between our weather recording intervals... More about our weather records

Advertising

Denver Weather History for the Previous 24 Hours

Scroll right to see more
 ConditionsComfort  
Time TempWeatherWind HumidityBarometerVisibility
5:58 AM
Mon, May 2
27 °FClear.8 mph90%30.28 "Hg10 mi
4:58 AM28 °FClear.8 mph93%30.27 "Hg10 mi
3:58 AM28 °FClear.7 mph93%30.30 "Hg10 mi
2:58 AM28 °FClear.7 mph95%30.30 "Hg10 mi
1:58 AM29 °FPassing clouds.8 mph96%30.31 "Hg10 mi
12:58 AM30 °FClear.6 mph97%30.33 "Hg10 mi
11:58 PM
Sun, May 1
31 °FClear.5 mph96%30.33 "Hg10 mi
10:58 PM32 °FClear.5 mph100%30.34 "Hg10 mi
9:58 PM33 °FClear.7 mph98%30.34 "Hg10 mi
8:58 PM35 °FOvercast.5 mph82%30.32 "Hg10 mi
7:58 PM36 °FScattered clouds.3 mph85%30.31 "Hg10 mi
6:58 PM39 °FSunny.No wind74%30.29 "Hg10 mi
5:58 PM37 °FCloudy.3 mph81%30.29 "Hg10 mi
4:58 PM36 °FOvercast.2 mph82%30.29 "Hg10 mi
3:58 PM36 °FMostly cloudy.6 mph88%30.31 "Hg10 mi
2:58 PM35 °FLight rain. Overcast.6 mph97%30.33 "Hg10 mi
1:58 PM34 °FOvercast.7 mph99%30.33 "Hg10 mi
1:03 PM32 °FLight snow. Mostly cloudy.7 mph100%30.30 "Hg10 mi
12:04 PM34 °FLight rain. Low clouds.6 mph93%30.33 "Hg10 mi
11:58 AM33 °FLight rain. More clouds than sun.8 mph100%30.37 "Hg10 mi
10:58 AM33 °FLight rain. Mostly cloudy.10 mph100%30.37 "Hg7 mi
9:58 AM32 °FLight rain. Low clouds.8 mph100%30.37 "Hg10 mi
8:58 AM32 °FLight snow. Fog.12 mph100%30.36 "Hg4 mi
8:03 AM32 °FLight snow. Low clouds.9 mph100%30.31 "Hg7 mi
7:58 AM32 °FLight snow. Ice fog.10 mph100%30.35 "Hg6 mi
7:03 AM32 °FLight snow. Ice fog.9 mph100%30.29 "Hg2 mi
Weather by CustomWeather, © 2016

See weather overviewHow to use our weather pages